Вернуться в каталог

FENGYUN 1C DEB

АктивенPO
NORAD 31005·DEBRIS·🇨🇳 China

Запущен May 10, 1999 с Taiyuan Satellite Launch Center

Loading…

Ближайшие Пролёты (ближайшие 24 часа)

TLE

СвежийSource: Space-Track

Эпоха: Sep 14, 2026, 07:11 UTC

1 31005U 99025BCX 26257.29994062  .00001112  00000-0  91443-3 0  9996
2 31005  98.6322  13.4804 0178599 295.1794  90.0891 13.84147600980926

Отслеживайте FENGYUN 1C DEB в реальном времени с AllMySat

Download on the App Store